Date,TemperatureHighF,TemperatureAvgF,TemperatureLowF,DewpointHighF,DewpointAvgF,DewpointLowF,HumidityHigh,HumidityAvg,HumidityLow,PressureMaxIn,PressureMinIn,WindSpeedMaxMPH,WindSpeedAvgMPH,GustSpeedMaxMPH,PrecipitationSumIn
2013-9-1,67.1,58.0,50.2,54.5,48.9,42.7,83,72,62,30.45,30.36,6,2,10,0.00
2013-9-2,66.6,61.1,56.8,55.4,53.6,51.6,84,77,66,30.39,30.33,8,4,13,0.00
2013-9-3,70.3,61.9,53.8,59.3,55.3,46.0,89,79,67,30.33,30.21,4,1,8,0.00
2013-9-4,67.3,60.8,52.3,60.5,55.9,44.3,93,84,74,30.21,29.95,5,1,8,0.00
2013-9-5,68.9,59.8,52.7,60.3,54.4,46.5,93,83,68,29.98,29.83,9,3,12,0.05
2013-9-6,62.4,56.9,53.1,52.7,49.9,47.6,85,78,66,29.89,29.74,6,2,12,0.70
2013-9-7,61.5,55.1,50.4,53.6,48.1,45.0,90,78,58,30.03,29.80,8,3,12,0.33
2013-9-8,63.3,56.4,51.4,54.2,49.8,46.1,91,79,61,30.03,29.95,6,2,10,0.13
2013-9-9,65.8,60.2,56.7,59.8,54.6,48.8,98,83,59,30.15,29.83,10,5,16,0.08
2013-9-10,63.9,59.1,56.1,54.6,51.4,48.2,89,76,62,30.27,30.15,10,5,16,0.00
2013-9-11,64.9,60.4,57.9,60.2,54.4,49.9,96,81,67,30.27,30.12,8,4,13,0.00
2013-9-12,66.9,62.8,60.6,64.2,61.4,59.8,98,95,90,30.15,30.09,11,6,16,0.12
2013-9-13,65.8,61.4,57.4,64.2,59.9,53.7,98,95,88,30.09,29.95,10,4,14,0.38
2013-9-14,62.1,57.5,51.8,54.2,48.7,42.7,89,73,53,30.12,29.80,11,3,12,0.00
2013-9-15,61.7,56.6,49.5,61.1,51.6,42.9,98,84,65,30.12,29.71,17,5,23,0.25
2013-9-16,61.7,56.2,52.5,48.8,45.4,41.7,78,67,53,29.80,29.74,16,8,26,0.08
2013-9-17,62.6,58.4,32.0,61.6,55.6,44.7,98,90,69,29.80,29.56,14,6,23,0.17
2013-9-18,62.4,58.2,53.1,57.7,51.8,45.6,95,80,60,30.01,29.62,11,6,17,0.04
2013-9-19,64.2,57.8,32.0,62.6,55.2,47.6,98,90,84,30.03,29.86,12,5,16,0.08
2013-9-20,65.3,58.3,52.2,54.7,52.0,49.3,94,80,61,30.18,30.03,6,2,8,0.00
2013-9-21,68.7,63.1,58.1,65.4,61.2,53.8,98,93,85,30.33,30.18,6,2,8,0.00
2013-9-22,68.7,64.0,60.8,64.4,61.6,59.2,96,92,82,30.39,30.30,4,1,9,0.00
2013-9-23,63.1,61.1,60.3,61.5,59.7,57.8,98,95,88,30.30,30.03,8,3,14,0.00
2013-9-24,67.3,62.7,60.4,63.9,60.5,59.1,98,92,85,30.03,29.92,5,2,8,0.00
2013-9-25,64.6,62.1,60.3,62.2,60.2,58.5,96,93,91,29.92,29.83,3,1,8,0.00
2013-9-26,64.2,62.0,60.8,62.7,60.9,59.5,98,96,94,29.98,29.89,6,2,12,0.05
2013-9-27,67.5,62.5,60.3,61.9,58.6,55.1,95,88,77,29.98,29.74,11,5,17,0.00
2013-9-28,64.0,61.9,60.3,62.0,59.7,55.4,97,92,84,29.74,29.62,7,4,14,0.00
2013-9-29,62.1,60.6,59.9,61.5,59.3,57.4,98,96,91,29.68,29.62,6,3,13,0.08
2013-9-30,65.1,61.4,60.1,63.2,60.4,58.9,98,96,92,29.68,29.62,5,2,10,0.04